User: anonymous   Login
Location: Unspecified
(0.0000°N, 0.0000°E)
Time: 21:58:20
(UTC+00:00)
Language:

Terriers - Orbit

View from above orbital plane
View from above orbital plane
View from above satellite
View from above satellite

Ground track
Ground track

The orbit data is extracted from the following two-line orbital elements,

1 25735U 99026A   17082.94996429 +.00002958 +00000-0 +64800-4 0  9994
2 25735 097.1723 249.7022 0003962 345.9027 014.2111 15.44900175993062
Epoch (UTC): 23 March 2017 22:47:56
Eccentricity: 0.0003962
inclination: 97.1723°
perigee height: 429 km
apogee height: 434 km
right ascension of ascending node: 249.7022°
argument of perigee: 345.9027°
revolutions per day: 15.44900175
mean anomaly at epoch: 14.2111°
orbit number at epoch: 99306

The dashed part of the orbit path shows where the satellite is in the earth's shadow,  

DLR